www.pogodaiklimat.ru

Погода и климат >> Архив погоды >> Россия >> Крым >> Симферополь


АРХИВ ПОГОДЫ в Симферополе

Время (UTC), дата Ветер
(напр.,м/с)
 
Видим.   Явления Облачность Т
(С)
Тd
(С)
f
(%)
Тe
(С)
Тes
(С)
Комфортность P
(гПа)
Po
(гПа)
Тmin
(С)
Tmax
(С)
R
(мм)
R24
(мм)
S
(см)
21 12.02 ЮЗ 8-12
{13}
10 км слаб. ливневой дождь 10/10 1380 м
[Cb calv]
+5.9 +5.2 95 0 0 тепло 1014.9 992.8
00 13.02 ЮЗ 7
{12}
10 км слаб. дождь 10/5 700 м
[Frnb As op]
+5.6 +4.7 94 0 0 тепло 1016.9 994.7
03 13.02 СЗ 6
{10}
10 км {дождь} 10/10 630 м
[Sc]
+3.5 +2.0 90 -2 -2 по сезону 1019.4 997.0 +3.4 6
06 13.02 СЗ 3 10 км {дождь} 10/5 630 м
[Sc Ac und]
+2.8 +1.3 90 -1 -1 по сезону 1022.8 1000.2 +2.3 6
09 13.02 С 4 10 км 10/10 330 м
[St]
+2.6 +0.8 88 -2 -2 по сезону 1024.8 1002.2
12 13.02 С 2 10 км 10/5 450 м
[St Ci sp]
+3.8 +0.3 78 +1 +3 по сезону 1025.4 1002.8
15 13.02 СВ 1 10 км 10/3 600 м
[Sc Ci sp]
+2.7 -1.1 76 +1 +1 по сезону 1026.3 1003.6
18 13.02 С 2 10 км 5/5 1020 м
[Sc]
+0.7 -1.7 84 -3 -3 по сезону 1028.0 1005.1 +4.1
21 13.02 СВ 3 10 км 10/0
[Ac trans Ci sp]
-1.3 -3.0 88 -6 -6 по сезону 1027.8 1004.8
00 14.02 СВ 4 10 км 6/6 800 м
[Sc]
-2.1 -2.9 94 -8 -8 по сезону 1028.2 1005.1
03 14.02 В 4 10 км ясно -3.6 -4.3 95 -10 -10 прохладно 1027.3 1004.1 -3.7
06 14.02 В 4 10 км 8/0
[Ac trans]
-2.1 -4.3 85 -8 -8 по сезону 1027.5 1004.4 -5.2
09 14.02 В 5 10 км 3/0
[Ci fib]
+2.5 -4.3 61 -2 +1 по сезону 1025.9 1003.2
12 14.02 СВ 6 10 км 9/0
[Ci fib]
+4.3 -4.7 52 -0 +1 по сезону 1023.8 1001.3
15 14.02 СВ 8-11
{10}
10 км 10/0
[Ci fib]
+1.8 -4.5 63 -5 -5 по сезону 1024.1 1001.4
18 14.02 В 7
{11}
10 км 10/0
[Ac trans Cs]
-1.7 -5.0 78 -9 -9 прохладно 1025.0 1002.0 +4.9
21 14.02 В 8-10
{10}
10 км 10/0
[Ac trans Cs]
-2.5 -4.8 84 -11 -11 холодно 1025.0 1001.9
00 15.02 В 6
{10}
10 км 10/0
[Ac trans Cs]
-2.4 -4.0 89 -10 -10 прохладно 1025.3 1002.2
03 15.02 СВ 7 10 км 10/0
[Ac und]
-2.5 -3.3 94 -10 -10 прохладно 1025.0 1001.9 -3.1
06 15.02 СВ 10-12
{13}
10 км 8/0
[Ac trans Ci fib]
-1.5 -4.2 82 -10 -10 прохладно 1025.9 1002.9 -3.1
09 15.02 СВ 13-16
{17}
10 км 9/0
[Ac trans Ci fib]
+1.9 -5.9 56 -6 -6 прохладно 1025.8 1003.1
12 15.02 СВ 12-15
{16}
10 км 6/0
[Ci fib]
+3.6 -6.1 49 -3 -3 прохладно 1025.4 1002.8
15 15.02 СВ 8-12
{15}
10 км 6/0
[Ci fib]
-0.2 -5.4 68 -7 -7 прохладно 1026.7 1003.8
18 15.02 В 5
{12}
10 км 10/0
[Ci fib]
-2.2 -6.6 72 -9 -9 прохладно 1027.3 1004.2 +4.2
21 15.02 В 3 10 км 8/0
[Ci fib]
-5.1 -7.7 82 -11 -11 холодно 1027.0 1003.6
00 16.02 В 3 10 км 3/0
[Ci fib]
-5.0 -7.1 85 -10 -10 прохладно 1027.3 1003.9
03 16.02 В 2 10 км 10/10 660 м
[Sc]
-2.6 -4.6 86 -7 -7 по сезону 1026.7 1003.6 -6.7
06 16.02 штиль 0 5000 м дымка 10/10 570 м
[Sc]
-2.2 -3.3 92 -3 -3 по сезону 1027.2 1004.1 -6.7
09 16.02 Ю 2 10 км 10/10 480 м
[St]
+0.3 -2.6 81 -3 -3 по сезону 1027.4 1004.5
12 16.02 ЮЗ 2 10 км 10/10 570 м
[Sc]
+2.3 -1.7 75 -1 -1 по сезону 1026.1 1003.4
15 16.02 ЮЗ 3 10 км 10/10 480 м
[St]
+2.3 -0.8 80 -2 -2 по сезону 1025.9 1003.2
18 16.02 Ю 3 10 км 10/10 450 м
[St]
+2.3 -0.1 84 -2 -2 по сезону 1026.3 1003.6 +2.6
21 16.02 ЮЗ 4 10 км 10/10 330 м
[St]
+2.5 +0.6 87 -2 -2 по сезону 1026.0 1003.3
00 17.02 ЮЗ 4 10 км 10/10 360 м
[St]
+3.0 +1.4 89 -2 -2 по сезону 1025.5 1002.9
03 17.02 ЮЗ 4 10 км 10/10 360 м
[St]
+3.3 +1.5 88 -1 -1 по сезону 1024.5 1001.9 +2.2
06 17.02 Ю 5 10 км 10/10 400 м
[St]
+4.2 +1.9 85 -1 -1 по сезону 1024.4 1001.9 +2.3
09 17.02 ЮЗ 7
{10}
10 км 10/10 450 м
[St]
+7.5 +4.1 79 +3 +3 тепло 1024.1 1001.9
12 17.02 ЮЗ 9-11
{11}
10 км 5/5 570 м
[St]
+9.1 +4.7 74 +5 +5 тепло 1021.8 999.8
15 17.02 ЮЗ 6
{11}
10 км 4/4 400 м
[St]
+6.7 +5.0 89 +2 +2 по сезону 1020.9 998.7
18 17.02 ЮЗ 6 3500 м дымка 9/9 240 м
[St]
+5.7 +5.3 97 +1 +1 тепло 1020.7 998.4 +9.9
21 17.02 Ю 5 2300 м дымка 3/3 200 м
[St]
+5.0 +4.7 98 0 0 тепло 1019.9 997.6
00 18.02 ЮЗ 5 4300 м дымка 3/3 300 м
[St]
+4.5 +4.2 98 -1 -1 по сезону 1019.2 996.8
03 18.02 СЗ 2 6000 м дымка ясно +2.1 +1.8 98 -1 -1 по сезону 1018.9 996.4 +1.9
06 18.02 СЗ 2 6000 м дымка 10/10 840 м
[Sc]
+2.8 +1.8 93 -0 -0 тепло 1020.2 997.7 +1.9
09 18.02 С 3 10 км 8/8 960 м
[Sc]
+5.6 +2.4 80 +2 +3 тепло 1021.0 998.7
12 18.02 С 4 10 км 1/1 1000 м
[Sc]
+8.6 -2.1 47 +6 +9 тепло 1020.3 998.2
15 18.02 С 3 10 км 3/0
[Ci fib]
+5.8 -4.1 49 +3 +3 тепло 1021.3 999.0
18 18.02 СЗ 2 10 км ясно +1.6 -4.7 63 -1 -1 по сезону 1023.0 1000.3 +9.2
21 18.02 В 4 10 км ясно -1.5 -4.8 78 -7 -7 по сезону 1024.6 1001.6
00 19.02 В 3 10 км ясно -3.1 -6.1 80 -8 -8 по сезону 1025.5 1002.3
03 19.02 В 4 10 км 4/0
[Ac trans Ci fib]
-4.2 -6.0 87 -11 -11 холодно 1025.6 1002.4 -4.3
06 19.02 В 3 10 км ясно -1.7 -4.5 81 -7 -5 по сезону 1026.9 1003.8 -5.1
09 19.02 В 4 10 км ясно +5.6 -6.6 41 +2 +7 тепло 1026.7 1004.2
12 19.02 СВ 3 10 км ясно +7.2 -7.6 34 +5 +9 тепло 1025.5 1003.2
15 19.02 СВ 4 10 км ясно +4.3 -4.7 52 +1 +1 по сезону 1025.4 1002.9
18 19.02 В 2 10 км ясно -1.2 -5.4 73 -5 -5 по сезону 1025.5 1002.5 +7.5

 

Местоположение метеостанции Симферополь (Крым, Россия): широта 45.03 долгота 33.97 высота над уровнем моря 181 м.

В архиве по умолчанию представлена погода в Симферополе за последнюю неделю. Архивные данные за месяц целиком и за предыдущие месяцы, начиная с января 2011 года, Вы можете получить, выбрав интересующий диапазон дат из раскрывающегося списка и нажав кнопку "Ввод!".


*Определитесь, кто Вы:
робот инопланетянин человек

Внимание! Время в таблицах - всемирное. Для получения местного времени необходимо прибавить поправку, которая равна 3 ч.

Смотрите также архив погоды в соседних городах и на ближайших метеорологических станциях:

Погода в Симферополе город (Крым, Россия) (15 км)
Погода в Почтовом (Крым, Россия) (22 км)
Погода на Ангарском Перевале (Крым, Россия) (43 км)
Погода в Белогорске (Крым, Россия) (50 км)
Погода в Евпатории (Крым, Россия) (50 км)
Погода в Алуште (Крым, Россия) (52 км)
Погода в Севастополе (город Севастополь, Россия) (57 км)
Погода в Клепинино (Крым, Россия) (58 км)
Погода в Никитском саду (Крым, Россия) (61 км)
Погода на Ай-Петри (Крым, Россия) (63 км)

Пояснения к столбцам:

Ветер - указаны скорость ветра в м/с - средняя за 10 мин, порывы в срок и между сроками (в фигурных скобках) и направление, откуда дует ветер: С - северный, СВ - северо-восточный, В - восточный, ЮВ - юго-восточный, Ю - южный, ЮЗ - юго-западный, З - западный, СЗ - северо-западный.
Видимость - горизонтальная дальность видимости в метрах или километрах. При видимости от 1 до 10 км при отсутствии осадков обычно наблюдается дымка, при ухудшении видимости до 1 км и менее - туман. В сухую погоду видимость может ухудшаться дымом, пылью или мглою.
Явления - указаны атмосферные явления, наблюдавшиеся в срок или в последний час перед сроком; фигурными скобками обозначены явления, наблюдавшиеся между сроками (за 1-3 часа до срока); квадратными скобками обозначены град или гололедные отложения с указанием их диаметра в мм.
Облачность - указаны через наклонную черту общая и нижняя облачность в баллах и высота нижней границы облаков в метрах; квадратными скобками обозначены формы облаков: Ci - перистые, Cs - перисто-слоистые, Cc - перисто-кучевые, Ac - высококучевые, As - высокослоистые, Sc - слоисто-кучевые, Ns - слоисто-дождевые, Cu - кучевые, Cb - кучево-дождевые. Подробнее классификацию облаков см. в Атласе облаков (PDF).
T - Температура воздуха - температура, измеренная на высоте 2 м над землей.
Td - Температура точки росы - температура, при понижении до которой содержащийся в воздухе водяной пар достигнет насыщения.
f - Относительная влажность воздуха - влажноcть воздуха, измеренная на высоте 2 м над землей.
Te - Эффективная температура - температура, которую ощущает одетый по сезону человек в тени. Характеристика душности погоды. При расчете учитывается влияние влажности воздуха и скорости ветра на теплоощущения человека.
Tes - Эффективная температура на солнце - температура, которую ощущает человек, с поправкой на солнечный нагрев. Характеристика знойности погоды. Зависит от высоты солнца над горизонтом, облачности и скорости ветра. Ночью, в пасмурную погоду, а также при ветре 12 м/с и более поправка равна нулю.
P - Атмосферное давление - приведенное к уровню моря атмосферное давление.
Po - Атмосферное давление - измеренное на уровне метеостанции атмосферное давление.
Tmin - Минимальная температура - минимум температуры воздуха на высоте 2 м над землей.
Tmax - Максимальная температура - максимум температуры воздуха на высоте 2 м над землей.
R - Количество осадков - Количество выпавших осадков за период времени, мм. При наведении курсора мыши на число - период времени, за который выпало указанное количество осадков.
R24 - Количество осадков - Количество выпавших осадков за 24 часа, мм.
S - Снежный покров - Высота снежного покрова, см. При наведении курсора мыши на число - состояние снежного покрова и степень покрытия местности в баллах.